Location: Krasnoyarskiy Pitomnik
(51.1333°N, 71.6167°E)
Time: 12:28:49
(UTC+00:00)

Transit 2A - Pass Details

Date: 15 April 2024
Orbit: 593 x 958 km, 66.7° (Epoch: 30 May)

Event Time Altitude Azimuth Distance (km) Brightness Sun altitude
Rises 04:25:06 0° 244° (WSW) 2,864 8.7 36.4°
Reaches altitude 10° 04:27:26 10° 253° (WSW) 1,992 8.0 36.7°
Maximum altitude 04:31:35 36° 321° (NW) 1,035 6.6 37.2°
Drops below altitude 10° 04:36:05 10° 28° (NNE) 2,165 8.4 37.8°
Sets 04:38:43 0° 37° (NE) 3,149 9.2 38.1°
